TimeMST,TemperatureF,Dew PointF,Humidity,Sea Level PressureIn,VisibilityMPH,Wind Direction,Wind SpeedMPH,Gust SpeedMPH,PrecipitationIn,Events,Conditions,WindDirDegrees,DateUTC
12:15 AM,28.4,10.4,47,30.43,10.0,SSE,6.9,-,N/A,,Clear,150,2012-11-23 07:15:00
12:35 AM,19.4,10.4,68,30.42,10.0,Calm,Calm,-,N/A,,Clear,0,2012-11-23 07:35:00
12:55 AM,23.0,10.4,59,30.42,10.0,Calm,Calm,-,N/A,,Clear,0,2012-11-23 07:55:00
1:15 AM,21.2,8.6,58,30.41,10.0,ENE,3.5,-,N/A,,Clear,60,2012-11-23 08:15:00
1:35 AM,26.6,12.2,55,30.40,10.0,Calm,Calm,-,N/A,,Clear,0,2012-11-23 08:35:00
1:55 AM,28.4,10.4,47,30.38,10.0,SSW,18.4,26.5,N/A,,Clear,200,2012-11-23 08:55:00
2:15 AM,28.4,10.4,47,30.38,10.0,South,19.6,25.3,N/A,,Clear,190,2012-11-23 09:15:00
2:35 AM,32.0,10.4,41,30.39,10.0,South,18.4,25.3,N/A,,Clear,170,2012-11-23 09:35:00
2:55 AM,30.2,8.6,40,30.38,10.0,South,18.4,25.3,N/A,,Clear,180,2012-11-23 09:55:00
3:15 AM,30.2,8.6,40,30.37,10.0,SSW,11.5,-,N/A,,Clear,200,2012-11-23 10:15:00
3:35 AM,24.8,8.6,50,30.37,10.0,ENE,4.6,-,N/A,,Clear,70,2012-11-23 10:35:00
3:55 AM,24.8,10.4,54,30.37,10.0,South,3.5,-,N/A,,Clear,190,2012-11-23 10:55:00
4:15 AM,24.8,10.4,54,30.37,10.0,Calm,Calm,-,N/A,,Clear,0,2012-11-23 11:15:00
4:55 AM,23.0,8.6,54,30.37,10.0,Calm,Calm,-,N/A,,Clear,0,2012-11-23 11:55:00
5:15 AM,26.6,10.4,51,30.36,10.0,NW,4.6,-,N/A,,Clear,320,2012-11-23 12:15:00
5:35 AM,23.0,10.4,59,30.36,10.0,Calm,Calm,-,N/A,,Clear,0,2012-11-23 12:35:00
5:55 AM,28.4,10.4,47,30.36,10.0,North,4.6,-,N/A,,Clear,350,2012-11-23 12:55:00
6:15 AM,21.2,10.4,63,30.36,10.0,West,4.6,-,N/A,,Clear,260,2012-11-23 13:15:00
6:35 AM,19.4,12.2,74,30.35,10.0,Calm,Calm,-,N/A,,Clear,0,2012-11-23 13:35:00
6:55 AM,21.2,12.2,68,30.34,10.0,West,3.5,-,N/A,,Clear,260,2012-11-23 13:55:00
7:15 AM,21.2,12.2,68,30.35,10.0,Calm,Calm,-,N/A,,Clear,0,2012-11-23 14:15:00
7:35 AM,19.4,10.4,68,30.35,10.0,Calm,Calm,-,N/A,,Clear,0,2012-11-23 14:35:00
7:55 AM,21.2,12.2,68,30.35,10.0,Calm,Calm,-,N/A,,Clear,0,2012-11-23 14:55:00
8:15 AM,23.0,12.2,63,30.35,10.0,WNW,6.9,-,N/A,,Clear,290,2012-11-23 15:15:00
8:35 AM,23.0,12.2,63,30.34,10.0,Calm,Calm,-,N/A,,Clear,0,2012-11-23 15:35:00
8:55 AM,24.8,12.2,59,30.34,10.0,Calm,Calm,-,N/A,,Clear,0,2012-11-23 15:55:00
9:15 AM,26.6,12.2,55,30.34,10.0,North,3.5,-,N/A,,Clear,10,2012-11-23 16:15:00
9:35 AM,28.4,12.2,51,30.34,10.0,North,3.5,-,N/A,,Clear,350,2012-11-23 16:35:00
9:55 AM,28.4,15.8,59,30.33,10.0,South,4.6,-,N/A,,Clear,170,2012-11-23 16:55:00
10:16 AM,30.2,15.8,55,30.35,10.0,North,8.1,-,N/A,,Clear,360,2012-11-23 17:16:00
10:35 AM,30.2,17.6,60,30.33,10.0,ENE,8.1,-,N/A,,Clear,70,2012-11-23 17:35:00
10:55 AM,30.2,17.6,60,30.33,10.0,NE,4.6,-,N/A,,Clear,50,2012-11-23 17:55:00
11:15 AM,32.0,17.6,55,30.32,10.0,North,4.6,-,N/A,,Clear,10,2012-11-23 18:15:00
11:35 AM,32.0,17.6,55,30.30,10.0,NE,5.8,-,N/A,,Clear,50,2012-11-23 18:35:00
11:55 AM,33.8,19.4,56,30.28,10.0,East,4.6,-,N/A,,Clear,100,2012-11-23 18:55:00
12:15 PM,35.6,19.4,52,30.28,10.0,West,3.5,-,N/A,,Clear,260,2012-11-23 19:15:00
12:35 PM,39.2,19.4,45,30.26,10.0,South,6.9,-,N/A,,Clear,170,2012-11-23 19:35:00
12:55 PM,44.6,14.0,29,30.26,10.0,East,9.2,-,N/A,,Clear,100,2012-11-23 19:55:00
1:15 PM,44.6,12.2,27,30.26,10.0,ESE,10.4,-,N/A,,Clear,110,2012-11-23 20:15:00
1:35 PM,44.6,14.0,29,30.24,10.0,ESE,8.1,-,N/A,,Clear,110,2012-11-23 20:35:00
1:55 PM,46.4,14.0,27,30.23,10.0,ESE,10.4,-,N/A,,Clear,110,2012-11-23 20:55:00
2:15 PM,46.4,12.2,25,30.21,10.0,SE,15.0,-,N/A,,Clear,130,2012-11-23 21:15:00
2:35 PM,48.2,15.8,27,30.21,10.0,SE,6.9,-,N/A,,Clear,130,2012-11-23 21:35:00
2:55 PM,48.2,15.8,27,30.21,10.0,SE,9.2,-,N/A,,Clear,140,2012-11-23 21:55:00
3:15 PM,48.2,15.8,27,30.21,10.0,East,9.2,-,N/A,,Clear,100,2012-11-23 22:15:00
3:55 PM,46.4,15.8,29,30.19,10.0,SE,4.6,-,N/A,,Clear,140,2012-11-23 22:55:00
4:15 PM,44.6,15.8,31,30.19,10.0,East,4.6,-,N/A,,Clear,90,2012-11-23 23:15:00
4:35 PM,41.0,15.8,36,30.19,10.0,Calm,Calm,-,N/A,,Clear,0,2012-11-23 23:35:00
4:55 PM,39.2,15.8,39,30.19,10.0,Calm,Calm,-,N/A,,Clear,0,2012-11-23 23:55:00
5:15 PM,37.4,15.8,41,30.17,10.0,Calm,Calm,-,N/A,,Clear,0,2012-11-24 00:15:00
5:35 PM,37.4,17.6,45,30.17,10.0,Calm,Calm,-,N/A,,Clear,0,2012-11-24 00:35:00
5:55 PM,33.8,19.4,56,30.17,10.0,South,5.8,-,N/A,,Clear,180,2012-11-24 00:55:00
6:15 PM,33.8,19.4,56,30.17,10.0,South,4.6,-,N/A,,Clear,180,2012-11-24 01:15:00
6:35 PM,35.6,19.4,52,30.17,10.0,SSE,4.6,-,N/A,,Clear,150,2012-11-24 01:35:00
6:55 PM,32.0,17.6,55,30.17,10.0,South,4.6,-,N/A,,Clear,170,2012-11-24 01:55:00
7:15 PM,32.0,19.4,60,30.17,10.0,WSW,4.6,-,N/A,,Clear,250,2012-11-24 02:15:00
7:35 PM,30.2,19.4,64,30.17,10.0,Calm,Calm,-,N/A,,Clear,0,2012-11-24 02:35:00
7:55 PM,30.2,17.6,60,30.16,10.0,SW,3.5,-,N/A,,Clear,230,2012-11-24 02:55:00
8:15 PM,28.4,19.4,69,30.15,10.0,South,5.8,-,N/A,,Clear,170,2012-11-24 03:15:00
8:35 PM,28.4,19.4,69,30.14,10.0,South,3.5,-,N/A,,Clear,190,2012-11-24 03:35:00
8:55 PM,30.2,17.6,60,30.15,10.0,Calm,Calm,-,N/A,,Clear,0,2012-11-24 03:55:00
9:15 PM,33.8,17.6,52,30.13,10.0,SSE,6.9,-,N/A,,Clear,160,2012-11-24 04:15:00
9:35 PM,32.0,19.4,60,30.12,10.0,South,4.6,-,N/A,,Clear,170,2012-11-24 04:35:00
9:55 PM,32.0,17.6,55,30.12,10.0,Calm,Calm,-,N/A,,Clear,0,2012-11-24 04:55:00
10:15 PM,33.8,17.6,52,30.11,10.0,Calm,Calm,-,N/A,,Clear,0,2012-11-24 05:15:00
10:35 PM,33.8,17.6,52,30.11,10.0,West,3.5,-,N/A,,Clear,260,2012-11-24 05:35:00
10:55 PM,42.8,19.4,39,30.10,10.0,SW,10.4,-,N/A,,Clear,220,2012-11-24 05:55:00
11:15 PM,44.6,19.4,37,30.10,10.0,SW,5.8,-,N/A,,Clear,230,2012-11-24 06:15:00
11:35 PM,39.2,15.8,39,30.09,10.0,South,6.9,-,N/A,,Clear,190,2012-11-24 06:35:00
11:55 PM,39.2,21.2,49,30.07,10.0,SW,8.1,-,N/A,,Clear,230,2012-11-24 06:55:00